Location: Lhota
(50.0887°N, 14.0116°E)
Time: 09:49:20
(UTC+00:00)

Cosmos 1500 Rocket - Pass Details

Date: 19 May 2025
Orbit: 598 x 623 km, 82.5° (Epoch: 23 June)

Event Time Altitude Azimuth Distance (km) Brightness Sun altitude
Rises 22:46:08 0° 346° (NNW) 2,880 8.5 -19.9°
Reaches altitude 10° 22:48:23 10° 341° (NNW) 1,975 7.2 -19.9°
Maximum altitude 22:52:38 53° 265° (W) 757 3.9 -19.9°
Enters shadow 22:53:42 42° 219° (SW) 882 4.0 -19.9°
